This demonstration page uses our WeatherBlox Daily Observations layout. Learn more.

39.01783, -85.05884

Hourly Observations for June 21, 2019

Temp ( °F °C ) Dew Point ( °F °C ) Humidity (%) Winds ( mph kmh ) Pressure ( in mb ) Visibility ( mi km ) Precip ( " mm )
12:42 am 00:42 Mostly Cloudy 67 19.4 60 15.6 79 79 NNW 6 9 29.85 1011 10 16.09344 0 0
12:52 am 00:52 Cloudy 67 19.4 60 15.6 79 79 NW 5 7 29.85 1011 10 16.09344 0 0
1:52 am 01:52 Cloudy 67 19.4 60 15.6 79 79 NNW 8 13 29.85 1011 10 16.09344 0 0
2:36 am 02:36 Cloudy 66 18.9 60 15.6 81 81 WNW 8 13 29.88 1012 10 16.09344 0 0
2:52 am 02:52 Cloudy 66 18.9 59 15 78 78 NW 7 11 29.85 1011 10 16.09344 0 0
3:52 am 03:52 Cloudy 65 18.3 60 15.6 84 84 W 8 13 29.88 1012 10 16.09344 0 0
4:52 am 04:52 Cloudy 64 17.8 59 15 84 84 NW 8 13 29.88 1012 10 16.09344 0 0
5:52 am 05:52 Mostly Cloudy 63 17.2 59 15 87 87 NW 7 11 29.91 1013 9 14.484096 0 0
6:26 am 06:26 Cloudy 63 17.2 59 15 87 87 NW 7 11 29.91 1013 8 12.874752 0 0
6:52 am 06:52 Mostly Cloudy 64 17.8 59 15 84 84 NNW 8 13 29.94 1014 8 12.874752 0 0
7:52 am 07:52 Mostly Cloudy 65 18.3 59 15 81 81 NNW 7 11 29.97 1015 8 12.874752 0 0
8:52 am 08:52 Partly Cloudy 67 19.4 59 15 76 76 NNW 9 15 29.97 1015 10 16.09344 0 0
9:52 am 09:52 Partly Cloudy 69 20.6 59 15 70 70 VRB 5 7 29.97 1015 10 16.09344 0 0
10:52 am 10:52 Partly Cloudy 71 21.7 59 15 66 66 Calm 29.97 1015 10 16.09344 0 0
11:52 am 11:52 Partly Cloudy 73 22.8 59 15 62 62 W 5 7 29.97 1015 10 16.09344 0 0
12:52 pm 12:52 Partly Cloudy 76 24.4 57 13.9 52 52 VRB 3 6 30 1016 10 16.09344 0 0
1:52 pm 13:52 Partly Cloudy 76 24.4 57 13.9 52 52 E 3 6 29.97 1015 10 16.09344 0 0
2:52 pm 14:52 Partly Cloudy 78 25.6 57 13.9 48 48 SE 5 7 29.97 1015 10 16.09344 0 0
3:52 pm 15:52 Partly Cloudy 80 26.7 56 13.3 44 44 WSW 6 9 29.94 1014 10 16.09344 0 0
4:52 pm 16:52 Mostly Cloudy 78 25.6 60 15.6 54 54 SW 6 9 29.97 1015 10 16.09344 0 0
5:52 pm 17:52 Cloudy 76 24.4 61 16.1 60 60 WSW 6 9 29.97 1015 10 16.09344 0 0
6:52 pm 18:52 Cloudy 75 23.9 60 15.6 60 60 WSW 5 7 29.97 1015 10 16.09344 0 0
7:52 pm 19:52 Cloudy 74 23.3 61 16.1 64 64 W 5 7 29.97 1015 10 16.09344 0 0
8:52 pm 20:52 Cloudy 70 21.1 64 17.8 82 82 S 7 11 29.94 1014 9 14.484096 0 0
9:52 pm 21:52 Cloudy with Light Rain 72 22.2 61 16.1 68 68 SSE 7 11 29.88 1012 10 16.09344 0.001 0.001
10:20 pm 22:20 Cloudy 72 22.2 61 16.1 68 68 NNW 6 9 29.94 1014 10 16.09344 0.001 0.001
10:52 pm 22:52 Cloudy 72 22.2 61 16.1 68 68 ENE 5 7 29.94 1014 10 16.09344 0.001 0.001
11:52 pm 23:52 Cloudy 71 21.7 60 15.6 68 68 ESE 7 11 29.91 1013 10 16.09344 0 0

Powered by AerisWeather